Hourly Weather Kleczany

Today, 27 July, Tuesday

Time Temperature Precipitation Wind Pressure Humidity
00:00 +20°C° 0.6 mm 2 mps 739 mmHg 87%
01:00 +20°C° 0.6 mm 3 mps 739 mmHg 89%
02:00 +20°C° 0 mm 3 mps 739 mmHg 89%
03:00 +19°C° 0 mm 3 mps 739 mmHg 88%
04:00 +19°C° 0 mm 3 mps 739 mmHg 88%
05:00 +20°C° 0 mm 4 mps 739 mmHg 85%
06:00 +22°C° 0 mm 4 mps 739 mmHg 81%
07:00 +23°C° 0 mm 4 mps 740 mmHg 78%
08:00 +25°C° 0 mm 4 mps 740 mmHg 73%
09:00 +27°C° 0 mm 4 mps 740 mmHg 68%
10:00 +28°C° 0 mm 4 mps 741 mmHg 63%
11:00 +29°C° 0 mm 4 mps 741 mmHg 60%
12:00 +29°C° 0 mm 4 mps 741 mmHg 57%
13:00 +30°C° 0 mm 3 mps 741 mmHg 54%
14:00 +30°C° 0 mm 3 mps 740 mmHg 54%
15:00 +30°C° 0 mm 3 mps 740 mmHg 55%
16:00 +30°C° 0 mm 3 mps 740 mmHg 55%
17:00 +28°C° 0.2 mm 3 mps 740 mmHg 63%
18:00 +26°C° 0.2 mm 2 mps 740 mmHg 70%
19:00 +24°C° 0.2 mm 2 mps 740 mmHg 77%
20:00 +24°C° 0 mm 2 mps 740 mmHg 79%
21:00 +23°C° 0 mm 1 mps 741 mmHg 81%
22:00 +22°C° 0 mm 1 mps 741 mmHg 83%
23:00 +22°C° 0 mm 1 mps 741 mmHg 85%

Tomorrow, 28 July, Wednesday

Time Temperature Precipitation Wind Pressure Humidity
00:00 +21°C° 0 mm 1 mps 741 mmHg 86%
01:00 +21°C° 0 mm 1 mps 740 mmHg 87%
02:00 +20°C° 0 mm 2 mps 740 mmHg 87%
03:00 +19°C° 0 mm 2 mps 740 mmHg 88%
04:00 +19°C° 0 mm 2 mps 740 mmHg 88%
05:00 +21°C° 0 mm 2 mps 739 mmHg 84%
06:00 +24°C° 0 mm 3 mps 739 mmHg 79%
07:00 +25°C° 0 mm 3 mps 739 mmHg 75%
08:00 +27°C° 0 mm 3 mps 739 mmHg 67%
09:00 +29°C° 0 mm 4 mps 739 mmHg 60%
10:00 +32°C° 0 mm 4 mps 739 mmHg 52%
11:00 +33°C° 0 mm 5 mps 738 mmHg 48%
12:00 +34°C° 0 mm 5 mps 738 mmHg 43%
13:00 +35°C° 0 mm 5 mps 738 mmHg 39%
14:00 +33°C° 0 mm 5 mps 737 mmHg 45%
15:00 +32°C° 0 mm 5 mps 737 mmHg 52%
16:00 +30°C° 0 mm 4 mps 737 mmHg 59%
17:00 +28°C° 0 mm 4 mps 737 mmHg 65%
18:00 +26°C° 0 mm 3 mps 737 mmHg 72%
19:00 +25°C° 0 mm 3 mps 738 mmHg 78%
20:00 +24°C° 0.1 mm 3 mps 738 mmHg 84%
21:00 +21°C° 0.1 mm 2 mps 738 mmHg 89%
22:00 +20°C° 0.1 mm 2 mps 739 mmHg 95%
23:00 +20°C° 0 mm 2 mps 739 mmHg 96%

Day after tomorrow, 29 July, Thursday

Time Temperature Precipitation Wind Pressure Humidity
00:00 +20°C° 0 mm 2 mps 739 mmHg 96%
01:00 +19°C° 0 mm 2 mps 739 mmHg 97%
02:00 +19°C° 0 mm 2 mps 739 mmHg 97%
03:00 +19°C° 0 mm 2 mps 739 mmHg 97%
04:00 +18°C° 0 mm 2 mps 740 mmHg 97%
05:00 +19°C° 0 mm 3 mps 740 mmHg 92%
06:00 +20°C° 0 mm 3 mps 740 mmHg 87%
07:00 +21°C° 0 mm 4 mps 740 mmHg 81%
08:00 +22°C° 0 mm 3 mps 741 mmHg 73%
09:00 +25°C° 0 mm 3 mps 741 mmHg 65%
10:00 +26°C° 0 mm 3 mps 741 mmHg 57%
11:00 +27°C° 0 mm 3 mps 741 mmHg 55%
12:00 +27°C° 0 mm 3 mps 741 mmHg 52%
13:00 +28°C° 0 mm 3 mps 740 mmHg 50%
14:00 +28°C° 0 mm 3 mps 740 mmHg 49%
15:00 +29°C° 0 mm 2 mps 740 mmHg 49%
16:00 +29°C° 0 mm 2 mps 740 mmHg 48%
17:00 +27°C° 0 mm 2 mps 740 mmHg 54%
18:00 +25°C° 0 mm 1 mps 739 mmHg 60%
19:00 +24°C° 0 mm 1 mps 739 mmHg 67%
20:00 +23°C° 0 mm 1 mps 739 mmHg 69%
21:00 +22°C° 0 mm 1 mps 739 mmHg 72%
22:00 +20°C° 0 mm 2 mps 739 mmHg 75%
23:00 +20°C° 0 mm 2 mps 739 mmHg 77%

30 July, Friday

Time Temperature Precipitation Wind Pressure Humidity
00:00 +19°C° 0 mm 2 mps 739 mmHg 79%
01:00 +19°C° 0 mm 2 mps 739 mmHg 81%
02:00 +19°C° 0 mm 2 mps 739 mmHg 81%
03:00 +19°C° 0 mm 2 mps 739 mmHg 82%
04:00 +19°C° 0 mm 2 mps 739 mmHg 83%
05:00 +20°C° 0 mm 2 mps 739 mmHg 77%
06:00 +23°C° 0 mm 2 mps 739 mmHg 71%
07:00 +25°C° 0 mm 2 mps 739 mmHg 65%
08:00 +27°C° 0 mm 2 mps 739 mmHg 59%
09:00 +28°C° 0 mm 3 mps 738 mmHg 54%
10:00 +30°C° 0 mm 3 mps 738 mmHg 48%
11:00 +31°C° 0 mm 3 mps 738 mmHg 45%
12:00 +33°C° 0 mm 3 mps 737 mmHg 42%
13:00 +34°C° 0 mm 2 mps 737 mmHg 38%
14:00 +32°C° 0 mm 2 mps 736 mmHg 41%
15:00 +32°C° 0 mm 2 mps 736 mmHg 44%
16:00 +31°C° 0 mm 2 mps 735 mmHg 47%
17:00 +28°C° 1.3 mm 2 mps 736 mmHg 60%
18:00 +25°C° 1.3 mm 2 mps 736 mmHg 73%
19:00 +21°C° 1.3 mm 1 mps 736 mmHg 85%
20:00 +21°C° 0.2 mm 1 mps 736 mmHg 87%
21:00 +20°C° 0.2 mm 1 mps 736 mmHg 88%
22:00 +20°C° 0.2 mm 1 mps 736 mmHg 89%
23:00 +20°C° 0.1 mm 1 mps 736 mmHg 88%

31 July, Saturday

Time Temperature Precipitation Wind Pressure Humidity
00:00 +20°C° 0.1 mm 1 mps 736 mmHg 88%
01:00 +20°C° 0.1 mm 1 mps 736 mmHg 87%
02:00 +20°C° 0.2 mm 1 mps 735 mmHg 87%
03:00 +20°C° 0.2 mm 1 mps 735 mmHg 87%
04:00 +20°C° 0.2 mm 1 mps 735 mmHg 88%
05:00 +20°C° 0.9 mm 1 mps 735 mmHg 88%
06:00 +20°C° 0.9 mm 1 mps 735 mmHg 89%
07:00 +21°C° 0.9 mm 1 mps 736 mmHg 90%
08:00 +21°C° 0 mm 1 mps 736 mmHg 88%
09:00 +22°C° 0 mm 1 mps 736 mmHg 87%
10:00 +23°C° 0 mm 1 mps 736 mmHg 85%
11:00 +23°C° 0.3 mm 1 mps 736 mmHg 84%
12:00 +23°C° 0.3 mm 1 mps 736 mmHg 83%
13:00 +24°C° 0.3 mm 2 mps 736 mmHg 82%
14:00 +24°C° 0.8 mm 2 mps 736 mmHg 82%
15:00 +24°C° 0.8 mm 3 mps 736 mmHg 82%
16:00 +24°C° 0.8 mm 3 mps 736 mmHg 83%
17:00 +22°C° 0.5 mm 3 mps 736 mmHg 85%
18:00 +21°C° 0.5 mm 2 mps 736 mmHg 87%
19:00 +21°C° 0.5 mm 2 mps 736 mmHg 89%
20:00 +20°C° 0 mm 2 mps 736 mmHg 89%
21:00 +19°C° 0 mm 2 mps 737 mmHg 90%
22:00 +19°C° 0 mm 2 mps 737 mmHg 91%
23:00 +18°C° 0 mm 2 mps 737 mmHg 91%

1 August, Sunday

Time Temperature Precipitation Wind Pressure Humidity
00:00 +18°C° 0 mm 2 mps 738 mmHg 91%
01:00 +18°C° 0 mm 2 mps 738 mmHg 91%
02:00 +18°C° 0.1 mm 2 mps 738 mmHg 91%
03:00 +18°C° 0.1 mm 2 mps 738 mmHg 91%
04:00 +19°C° 0.1 mm 1 mps 738 mmHg 91%
05:00 +19°C° 0 mm 1 mps 738 mmHg 87%
06:00 +20°C° 0 mm 1 mps 738 mmHg 83%
07:00 +21°C° 0 mm 1 mps 738 mmHg 79%
08:00 +22°C° 0 mm 1 mps 738 mmHg 71%
09:00 +24°C° 0 mm 1 mps 738 mmHg 64%
10:00 +25°C° 0 mm 1 mps 738 mmHg 57%
11:00 +25°C° 0.1 mm 1 mps 738 mmHg 57%
12:00 +25°C° 0.1 mm 1 mps 738 mmHg 58%
13:00 +25°C° 0.1 mm 1 mps 738 mmHg 58%
14:00 +24°C° 0.2 mm 1 mps 737 mmHg 65%
15:00 +23°C° 0.2 mm 1 mps 737 mmHg 71%
16:00 +21°C° 0.2 mm 1 mps 737 mmHg 77%
17:00 +21°C° 0.1 mm 1 mps 737 mmHg 79%
18:00 +21°C° 0.1 mm 1 mps 737 mmHg 80%
19:00 +20°C° 0.1 mm 1 mps 736 mmHg 82%
20:00 +19°C° 0 mm 1 mps 736 mmHg 85%
21:00 +18°C° 0 mm 1 mps 736 mmHg 88%
22:00 +16°C° 0 mm 2 mps 736 mmHg 90%
23:00 +16°C° 0.9 mm 2 mps 736 mmHg 92%
Show more